GW1769 Weather Reports


time (UTC)temp
F
wind
direction
speed
knots
gust
knots
rain 1hr
in
rain 24hr
in
rain mn
in
humidity
%
barometer
mb
20260831055335 63 184 0.0 0.9 0.00 0.00 0.00 99 1016.4
20260831054830 63 186 0.9 1.7 0.00 0.00 0.00 99 1016.4
20260831054325 63 186 0.0 0.9 0.00 0.00 0.00 99 1016.3
20260831053824 63 192 0.0 0.0 0.00 0.00 0.00 99 1016.1
20260831053323 63 187 0.9 0.9 0.00 0.00 0.00 99 1016.5
20260831052817 63 184 0.0 0.0 0.00 0.00 0.00 98 1016.1
20260831052316 63 214 0.9 0.9 0.00 0.00 0.00 98 1016.2
20260831051814 63 251 1.7 1.7 0.00 0.00 0.00 98 1016.2
20260831051314 64 199 0.9 0.9 0.00 0.00 0.00 98 1016.2
20260831050808 64 188 0.9 1.7 0.00 0.00 0.00 98 1016.1
20260831050302 64 245 0.0 0.0 0.00 0.00 0.00 98 1016.3
20260831045756 63 230 0.0 0.9 0.00 0.00 0.00 99 1016.6
20260831045251 63 179 1.7 1.7 0.00 0.00 0.00 99 1016.5
20260831044745 63 189 0.9 1.7 0.00 0.00 0.00 99 1016.3
20260831044240 63 185 0.0 0.0 0.00 0.00 0.00 99 1016.3
20260831043736 64 176 0.0 0.0 0.00 0.00 0.00 98 1016.2
20260831043231 64 189 0.9 0.9 0.00 0.00 0.00 98 1016.2
20260831042730 64 188 0.0 0.9 0.00 0.00 0.00 99 1016.2
20260831042225 64 183 0.0 0.0 0.00 0.00 0.00 99 1016.4
20260831041721 64 201 0.9 1.7 0.00 0.00 0.00 99 1016.4
20260831041220 63 235 0.9 1.7 0.00 0.00 0.00 99 1016.3
20260831040715 63 195 0.0 0.9 0.00 0.00 0.00 99 1016.5
20260831040214 63 184 0.0 0.0 0.00 0.00 0.00 99 1016.5
20260831035713 63 200 0.0 0.0 0.00 0.00 0.00 99 1016.6
20260831035207 63 222 0.0 0.0 0.00 0.00 0.00 99 1016.5
20260831034707 63 205 0.0 0.9 0.00 0.00 0.00 99 1016.4
20260831034203 63 177 0.0 0.0 0.00 0.00 0.00 99 1016.4
20260831033658 63 180 0.0 0.0 0.00 0.00 0.00 99 1016.4
20260831033157 63 189 0.0 0.0 0.00 0.00 0.00 99 1016.3
20260831032652 63 181 0.0 0.0 0.00 0.00 0.00 99 1016.5
20260831032148 62 182 0.0 0.0 0.00 0.00 0.00 99 1016.7
20260831031647 62 173 0.0 0.0 0.00 0.00 0.00 99 1016.7
20260831031147 62 181 0.0 0.0 0.00 0.00 0.00 99 1016.6
20260831030645 63 168 0.9 0.9 0.00 0.00 0.00 99 1016.5
20260831030144 63 167 0.0 0.0 0.00 0.00 0.00 99 1016.6
20260831025643 63 171 0.0 0.0 0.00 0.00 0.00 99 1016.6
20260831025138 63 181 0.0 0.0 0.00 0.00 0.00 99 1016.6
20260831024635 63 184 0.0 0.0 0.00 0.00 0.00 99 1016.5
20260831024134 63 184 0.0 0.0 0.00 0.00 0.00 99 1016.7
20260831023632 63 181 0.0 0.0 0.00 0.00 0.00 99 1016.5
20260831023132 63 183 0.0 0.0 0.00 0.00 0.00 99 1016.6
20260831022627 63 190 0.0 0.0 0.00 0.00 0.00 99 1016.3
20260831022122 63 291 0.0 1.7 0.00 0.00 0.00 99 1016.3
20260831021620 63 181 0.0 0.0 0.00 0.00 0.00 99 1016.0
20260831021116 63 216 0.0 0.0 0.00 0.00 0.00 99 1016.0
20260831020612 63 182 0.0 0.0 0.00 0.00 0.00 99 1016.1
20260831020107 63 190 0.0 0.0 0.00 0.00 0.00 99 1016.3
20260831015602 63 186 1.7 1.7 0.00 0.00 0.00 99 1016.1
20260831015057 63 227 0.9 1.7 0.00 0.00 0.00 99 1016.3
20260831014552 63 189 0.0 0.0 0.00 0.00 0.00 99 1016.3
20260831014047 63 193 0.0 0.0 0.00 0.00 0.00 98 1016.3
20260831013543 64 202 0.9 1.7 0.00 0.00 0.00 98 1016.5
20260831013037 64 192 0.0 0.9 0.00 0.00 0.00 98 1016.5
20260831012532 64 239 0.0 0.0 0.00 0.00 0.00 98 1016.6
20260831012027 64 188 0.0 0.0 0.00 0.00 0.00 98 1016.6
20260831011526 64 200 0.0 0.0 0.00 0.00 0.00 98 1016.5
20260831011022 64 200 0.0 0.0 0.00 0.00 0.00 98 1016.2
20260831010522 63 196 0.0 0.0 0.00 0.00 0.00 98 1016.5
20260831010019 63 190 0.0 0.0 0.00 0.00 0.00 98 1016.3
20260831005519 63 181 0.0 0.0 0.00 0.00 0.00 98 1016.4
20260831005018 63 178 0.0 0.0 0.00 0.00 0.00 98 1016.2
20260831004515 63 187 0.0 0.0 0.00 0.00 0.00 99 1016.3
20260831004010 63 181 0.0 0.0 0.00 0.00 0.00 99 1016.0
20260831003506 63 194 0.0 0.0 0.00 0.00 0.00 99 1016.0
20260831003002 63 177 0.0 0.0 0.00 0.00 0.00 99 1015.6
20260831002500 63 181 0.0 0.0 0.00 0.00 0.00 99 1015.7
20260831001955 63 192 0.0 0.0 0.00 0.00 0.00 99 1015.9
20260831001450 63 182 0.0 0.0 0.00 0.00 0.00 99 1015.4
20260831000948 63 181 0.0 0.0 0.00 0.00 0.00 99 1015.4
20260831000443 63 177 0.0 0.0 0.00 0.00 0.00 99 1015.2
20260830235941 63 181 0.0 0.0 0.00 0.00 0.00 99 1015.1
20260830235437 63 185 0.0 0.0 0.00 0.00 0.00 99 1015.2
20260830234932 63 181 0.0 0.0 0.00 0.00 0.00 99 1015.1
20260830234427 63 181 0.0 0.0 0.00 0.00 0.00 99 1014.9
20260830233923 63 180 0.0 0.0 0.00 0.00 0.00 99 1015.0
20260830233418 63 189 0.0 0.0 0.00 0.00 0.00 99 1015.0
20260830232914 63 185 0.0 0.0 0.00 0.00 0.00 98 1015.0
20260830232409 63 184 0.0 0.0 0.00 0.00 0.00 98 1015.0
20260830231906 63 187 0.0 0.9 0.00 0.00 0.00 98 1015.0
20260830231401 63 187 0.0 0.0 0.00 0.00 0.00 98 1014.9
20260830230900 63 190 0.0 0.0 0.00 0.00 0.00 97 1014.7
20260830230356 63 186 0.9 1.7 0.00 0.00 0.00 97 1014.7
20260830225855 63 197 0.0 0.9 0.00 0.00 0.00 97 1014.7
20260830225350 63 198 0.0 0.9 0.00 0.00 0.00 97 1014.9
20260830224845 64 181 0.9 0.9 0.00 0.00 0.00 97 1014.9
20260830224339 63 218 0.0 0.9 0.00 0.00 0.00 97 1015.0
20260830223836 63 186 0.9 0.9 0.00 0.00 0.00 97 1015.1
20260830223332 63 237 1.7 1.7 0.00 0.00 0.00 96 1015.1
20260830222831 64 222 1.7 1.7 0.00 0.00 0.00 96 1015.2
20260830222326 64 294 2.6 4.3 0.00 0.00 0.00 95 1015.4
20260830221821 64 202 1.7 1.7 0.00 0.00 0.00 95 1015.5
20260830221319 65 233 1.7 1.7 0.00 0.00 0.00 95 1015.5
20260830220818 66 206 2.6 2.6 0.00 0.00 0.00 93 1015.6
20260830220318 66 224 0.9 0.9 0.00 0.00 0.00 91 1015.3
20260830215816 67 222 1.7 1.7 0.00 0.00 0.00 88 1015.2
20260830215311 68 202 0.9 0.9 0.00 0.00 0.00 86 1015.3
20260830214806 68 264 1.7 1.7 0.00 0.00 0.00 84 1015.0
20260830214301 69 261 1.7 1.7 0.00 0.00 0.00 82 1015.2
20260830213800 69 242 0.9 1.7 0.00 0.00 0.00 80 1015.0
20260830213255 70 188 1.7 1.7 0.00 0.00 0.00 79 1015.0
20260830212751 70 286 1.7 2.6 0.00 0.00 0.00 79 1014.9
20260830212247 70 211 0.9 1.7 0.00 0.00 0.00 79 1014.7
20260830211746 70 185 0.9 1.7 0.00 0.00 0.00 79 1014.8
20260830211245 70 197 0.9 1.7 0.00 0.00 0.00 79 1014.3
20260830210742 70 194 0.9 1.7 0.00 0.00 0.00 80 1014.3
20260830210241 70 173 0.0 0.0 0.00 0.00 0.00 81 1014.8
20260830205738 70 200 0.9 0.9 0.00 0.00 0.00 81 1014.8
20260830205233 70 177 0.0 0.0 0.00 0.00 0.00 82 1014.3
20260830204728 70 195 0.0 0.9 0.00 0.00 0.00 82 1014.7
20260830204227 70 183 0.0 0.0 0.00 0.00 0.00 84 1014.3
20260830203723 70 181 0.0 0.0 0.00 0.00 0.00 84 1014.7
20260830203219 70 186 0.0 0.0 0.00 0.00 0.00 84 1014.4
20260830202718 70 192 0.0 0.0 0.00 0.00 0.00 83 1014.6
20260830202214 70 181 0.0 0.0 0.00 0.00 0.00 82 1014.8
20260830201713 71 179 0.0 0.0 0.00 0.00 0.00 81 1014.8
20260830201208 71 183 0.0 0.0 0.00 0.00 0.00 81 1014.7
20260830200704 71 184 0.0 0.0 0.00 0.00 0.00 81 1014.6
20260830200203 72 189 0.9 0.9 0.00 0.00 0.00 79 1014.6
20260830195659 72 191 0.0 0.9 0.00 0.00 0.00 78 1014.4
20260830195156 73 188 0.0 0.0 0.00 0.00 0.00 77 1014.8
20260830194655 73 204 0.9 0.9 0.00 0.00 0.00 74 1014.7
20260830194150 73 194 0.0 0.0 0.00 0.00 0.00 72 1014.8
20260830193644 74 175 0.0 0.0 0.00 0.00 0.00 75 1014.6
20260830193139 74 182 0.0 0.0 0.00 0.00 0.00 73 1014.6
20260830192634 74 194 1.7 1.7 0.00 0.00 0.00 70 1014.6
20260830192129 74 190 0.0 0.9 0.00 0.00 0.00 75 1015.0
20260830191625 74 185 0.9 0.9 0.00 0.00 0.00 72 1014.9
20260830191120 74 174 1.7 1.7 0.00 0.00 0.00 72 1015.0
20260830190615 75 193 0.0 0.0 0.00 0.00 0.00 73 1015.0
20260830190109 75 180 0.0 0.0 0.00 0.00 0.00 72 1015.1
20260830185603 75 179 0.0 0.0 0.00 0.00 0.00 71 1015.2
20260830185059 76 209 1.7 1.7 0.00 0.00 0.00 69 1014.8
20260830184558 77 188 0.9 1.7 0.00 0.00 0.00 69 1015.3
20260830184052 76 184 0.0 0.0 0.00 0.00 0.00 74 1015.3
20260830183547 77 231 2.6 4.3 0.00 0.00 0.00 71 1015.2
20260830183043 77 186 1.7 4.3 0.00 0.00 0.00 68 1015.4
20260830182538 77 208 0.9 0.9 0.00 0.00 0.00 69 1015.2
20260830182034 76 167 0.0 0.9 0.00 0.00 0.00 76 1015.3
20260830181531 75 188 0.9 0.9 0.00 0.00 0.00 73 1015.4
20260830181030 75 184 0.0 0.9 0.00 0.00 0.00 74 1015.4
20260830180529 74 201 0.9 0.9 0.00 0.00 0.00 75 1015.5
20260830180028 74 190 0.0 0.0 0.00 0.00 0.00 76 1015.7
20260830175527 74 170 0.0 0.9 0.00 0.00 0.00 76 1015.5
20260830175023 74 215 0.9 0.9 0.00 0.00 0.00 76 1015.6
20260830174519 74 201 2.6 4.3 0.00 0.00 0.00 75 1015.5
20260830174014 74 189 0.0 0.0 0.00 0.00 0.00 76 1015.4
20260830173509 74 159 0.0 0.9 0.00 0.00 0.00 73 1015.4
20260830173004 74 247 0.9 0.9 0.00 0.00 0.00 73 1015.5
20260830172501 74 181 0.0 0.0 0.00 0.00 0.00 75 1015.7
20260830171956 74 191 0.9 0.9 0.00 0.00 0.00 74 1015.7
20260830171451 73 184 0.0 1.7 0.00 0.00 0.00 74 1015.7
20260830170951 73 199 0.0 0.9 0.00 0.00 0.00 78 1015.8
20260830170446 73 190 0.9 1.7 0.00 0.00 0.00 75 1015.7
20260830165944 74 206 0.9 0.9 0.00 0.00 0.00 74 1015.9
20260830165441 74 179 0.0 0.0 0.00 0.00 0.00 73 1016.0
20260830164936 74 156 2.6 2.6 0.00 0.00 0.00 71 1016.1
20260830164432 74 193 0.9 0.9 0.00 0.00 0.00 72 1015.9
20260830163928 75 212 2.6 2.6 0.00 0.00 0.00 70 1016.1
20260830163425 75 202 0.9 0.9 0.00 0.00 0.00 73 1016.1
20260830162923 76 187 0.9 0.9 0.00 0.00 0.00 71 1016.1
20260830162420 75 188 0.9 0.9 0.00 0.00 0.00 72 1016.1
20260830161914 76 173 0.9 0.9 0.00 0.00 0.00 70 1016.4
20260830161413 76 180 0.9 0.9 0.00 0.00 0.00 70 1016.2
20260830160909 78 184 1.7 1.7 0.00 0.00 0.00 70 1016.1
20260830160405 76 187 0.0 0.0 0.00 0.00 0.00 70 1016.3
20260830155900 74 184 0.0 0.0 0.00 0.00 0.00 77 1016.5
20260830155356 73 179 0.0 0.0 0.00 0.00 0.00 76 1016.6
20260830154851 73 181 0.9 0.9 0.00 0.00 0.00 71 1016.6
20260830154347 73 163 0.0 0.9 0.00 0.00 0.00 73 1016.6
20260830153844 73 181 0.0 0.9 0.00 0.00 0.00 70 1016.7
20260830153339 73 185 0.0 0.0 0.00 0.00 0.00 71 1016.7
20260830152837 73 180 0.0 0.0 0.00 0.00 0.00 74 1016.5
20260830152332 72 178 0.9 0.9 0.00 0.00 0.00 72 1016.7
20260830151827 71 178 0.0 0.0 0.00 0.00 0.00 73 1017.0
20260830151326 71 193 1.7 1.7 0.00 0.00 0.00 72 1017.0
20260830150821 71 190 0.0 0.0 0.00 0.00 0.00 73 1017.0
20260830150321 70 179 0.0 0.0 0.00 0.00 0.00 75 1016.9
20260830145815 70 208 0.9 0.9 0.00 0.00 0.00 74 1016.9
20260830145310 70 198 0.0 0.9 0.00 0.00 0.00 73 1016.9
20260830144806 70 181 0.0 0.0 0.00 0.00 0.00 75 1017.1
20260830144301 70 180 0.0 0.0 0.00 0.00 0.00 75 1016.9
20260830143757 70 165 0.9 1.7 0.00 0.00 0.00 75 1016.9
20260830143256 71 181 0.9 0.9 0.00 0.00 0.00 76 1017.1
20260830142751 70 181 0.0 0.0 0.00 0.00 0.00 77 1016.8
20260830142246 70 177 0.0 0.0 0.00 0.00 0.00 76 1016.9
20260830141741 70 182 0.0 0.0 0.00 0.00 0.00 77 1016.6
20260830141236 69 181 0.0 0.0 0.00 0.00 0.00 76 1017.1
20260830140731 69 180 0.0 0.0 0.00 0.00 0.00 76 1017.0
20260830140226 69 182 0.0 0.0 0.00 0.00 0.00 77 1017.1
20260830135720 69 183 0.9 0.9 0.00 0.00 0.00 76 1017.1
20260830135216 69 182 0.0 0.0 0.00 0.00 0.00 78 1017.0
20260830134712 69 162 0.0 0.9 0.00 0.00 0.00 75 1017.0
20260830134206 69 181 0.0 0.0 0.00 0.00 0.00 77 1017.1
20260830133702 69 178 0.0 0.0 0.00 0.00 0.00 77 1017.0
20260830133158 68 186 0.0 0.9 0.00 0.00 0.00 79 1017.1
20260830132653 68 182 0.0 0.0 0.00 0.00 0.00 80 1017.5
20260830132149 67 181 0.0 0.0 0.00 0.00 0.00 80 1017.3
20260830131648 67 185 0.0 0.0 0.00 0.00 0.00 80 1017.3
20260830131143 67 195 0.0 0.9 0.00 0.00 0.00 82 1017.0
20260830130637 67 194 0.0 0.9 0.00 0.00 0.00 80 1017.1
20260830130132 67 194 0.9 0.9 0.00 0.00 0.00 81 1017.3
20260830125631 67 181 0.0 0.0 0.00 0.00 0.00 81 1017.3
20260830125126 67 183 0.0 0.0 0.00 0.00 0.00 78 1017.2
20260830124624 68 202 0.0 0.9 0.00 0.00 0.00 79 1017.5
20260830124120 68 186 0.0 0.0 0.00 0.00 0.00 78 1017.4
20260830123617 68 181 0.9 0.9 0.00 0.00 0.00 75 1017.7
20260830123112 67 198 0.9 0.9 0.00 0.00 0.00 78 1017.6
20260830122609 66 183 0.0 0.0 0.00 0.00 0.00 79 1017.6
20260830122105 66 183 0.0 0.0 0.00 0.00 0.00 81 1017.6
20260830121601 65 191 0.0 0.0 0.00 0.00 0.00 81 1017.6
20260830121100 65 187 0.9 0.9 0.00 0.00 0.00 83 1017.4
20260830120555 64 198 0.9 0.9 0.00 0.00 0.00 84 1017.7
20260830120051 64 192 0.9 0.9 0.00 0.00 0.00 83 1017.8
20260830115547 64 182 0.0 0.9 0.00 0.00 0.00 83 1017.6
20260830115042 64 189 0.9 0.9 0.00 0.00 0.00 83 1017.5
20260830114539 63 181 0.9 0.9 0.00 0.00 0.00 83 1017.7
20260830114038 63 184 0.0 0.0 0.00 0.00 0.00 85 1017.7
20260830113534 64 181 0.0 0.0 0.00 0.00 0.00 85 1017.7
20260830113029 64 182 0.0 0.0 0.00 0.00 0.00 84 1017.8
20260830112525 63 181 0.0 0.0 0.00 0.00 0.00 83 1017.8
20260830112021 63 182 0.0 0.0 0.00 0.00 0.00 85 1017.7
20260830111516 63 182 0.0 0.0 0.00 0.00 0.00 84 1017.8
20260830111012 63 183 0.0 0.9 0.00 0.00 0.00 82 1017.6
20260830110506 63 188 0.9 0.9 0.00 0.00 0.00 82 1017.9
20260830110001 63 203 0.9 0.9 0.00 0.00 0.00 81 1017.9
20260830105457 63 207 0.9 0.9 0.00 0.00 0.00 82 1017.9
20260830104953 62 202 0.9 0.9 0.00 0.00 0.00 81 1017.6
20260830104449 62 188 0.0 0.0 0.00 0.00 0.00 83 1017.6
20260830103944 62 214 0.9 1.7 0.00 0.00 0.00 82 1017.7
20260830103440 62 180 0.9 1.7 0.00 0.00 0.00 82 1017.8
20260830102938 62 177 0.9 1.7 0.00 0.00 0.00 83 1017.6
20260830102433 62 199 0.9 0.9 0.00 0.00 0.00 83 1017.7
20260830101929 62 205 0.9 0.9 0.00 0.00 0.00 82 1017.8
20260830101424 62 192 0.9 0.9 0.00 0.00 0.00 84 1017.7
20260830100924 62 181 0.0 0.9 0.00 0.00 0.00 83 1017.8
20260830100423 62 182 0.0 0.0 0.00 0.00 0.00 83 1017.8
20260830095922 62 182 0.9 0.9 0.00 0.00 0.00 83 1017.5
20260830095418 62 213 1.7 1.7 0.00 0.00 0.00 84 1017.9
20260830094914 62 207 0.9 1.7 0.00 0.00 0.00 84 1017.8
20260830094410 61 185 0.0 0.9 0.00 0.00 0.00 84 1017.8
20260830093906 61 192 0.9 0.9 0.00 0.00 0.00 86 1017.7
20260830093401 61 183 0.0 0.0 0.00 0.00 0.00 85 1017.6
20260830092856 61 185 0.0 0.9 0.00 0.00 0.00 84 1017.9
20260830092352 61 214 0.9 1.7 0.00 0.00 0.00 83 1017.7
20260830091848 62 208 0.9 0.9 0.00 0.00 0.00 83 1017.8
20260830091348 62 215 0.9 1.7 0.00 0.00 0.00 82 1017.9
20260830090847 62 183 0.0 0.9 0.00 0.00 0.00 83 1018.1
20260830090343 62 217 0.9 0.9 0.00 0.00 0.00 82 1017.8
20260830085842 62 182 0.9 0.9 0.00 0.00 0.00 82 1017.8
20260830085337 62 214 1.7 1.7 0.00 0.00 0.00 81 1017.9
20260830084833 62 227 0.9 0.9 0.00 0.00 0.00 81 1017.8
20260830084328 62 208 0.9 0.9 0.00 0.00 0.00 82 1017.9
20260830083823 62 181 0.9 0.9 0.00 0.00 0.00 82 1017.8
20260830083320 62 200 0.9 1.7 0.00 0.00 0.00 82 1017.8
20260830082819 62 206 0.9 0.9 0.00 0.00 0.00 81 1017.9
20260830082314 62 188 1.7 1.7 0.00 0.00 0.00 81 1017.9
20260830081809 62 186 0.9 1.7 0.00 0.00 0.00 81 1017.9
20260830081308 62 187 0.9 1.7 0.00 0.00 0.00 81 1017.9
20260830080803 62 195 0.9 0.9 0.00 0.00 0.00 83 1017.9
20260830080300 62 209 0.9 0.9 0.00 0.00 0.00 81 1017.8
20260830075759 62 215 0.9 1.7 0.00 0.00 0.00 82 1018.0
20260830075255 62 183 0.0 0.9 0.00 0.00 0.00 82 1018.1
20260830074749 62 187 0.9 0.9 0.00 0.00 0.00 83 1018.0
20260830074246 61 198 1.7 1.7 0.00 0.00 0.00 83 1017.8
20260830073741 61 196 0.9 1.7 0.00 0.00 0.00 83 1017.8
20260830073236 61 180 0.0 0.0 0.00 0.00 0.00 83 1017.9
20260830072731 61 182 0.9 1.7 0.00 0.00 0.00 83 1017.8
20260830072226 61 181 0.9 0.9 0.00 0.00 0.00 83 1017.7
20260830071721 61 185 0.0 0.9 0.00 0.00 0.00 84 1017.9
20260830071220 61 207 0.9 0.9 0.00 0.00 0.00 83 1018.1
20260830070714 61 215 0.9 1.7 0.00 0.00 0.00 84 1017.8
20260830070208 61 212 0.0 0.9 0.00 0.00 0.00 85 1017.7
20260830065707 61 207 0.0 0.9 0.00 0.00 0.00 85 1017.8
20260830065202 60 216 0.0 0.9 0.00 0.00 0.00 84 1017.8
20260830064701 60 187 0.0 0.9 0.00 0.00 0.00 85 1017.8
20260830064156 60 183 0.9 0.9 0.00 0.00 0.00 85 1017.7
20260830063655 60 210 0.9 1.7 0.00 0.00 0.00 86 1017.8
20260830063155 60 185 0.9 1.7 0.00 0.00 0.00 86 1017.8
20260830062650 60 181 0.9 0.9 0.00 0.00 0.00 87 1018.0
20260830062144 60 183 0.9 0.9 0.00 0.00 0.00 87 1018.0
20260830061638 59 201 0.9 0.9 0.00 0.00 0.00 87 1018.0
20260830061135 59 201 0.0 0.0 0.00 0.00 0.00 88 1018.1
20260830060632 59 180 0.9 0.9 0.00 0.00 0.00 88 1018.1
20260830060128 59 204 0.9 1.7 0.00 0.00 0.00 89 1018.1
20260830055622 59 206 0.9 1.7 0.00 0.00 0.00 89 1018.4